Погода в Астреево

Россия / Калужская область     55°00′43″N   36°11′25″E
темп.,
°C
ветер,
м/с
пор.,
м/с
влажн.,
%
обл.,
%
осадки,
мм/ч
давл.,
гПа
погр.,
м
24 января, пн
пн2400:00−19ссв22100100 0.0 103513
03:00−21с22100100 0.1 103714
06:00−17св229899 0.1 103712
09:00−20ссв11100100 0.1 10389
12:00−12св1298100 0.0 103790
15:00−10св119612 0.1 103626
18:00−18в0010074 0.0 10359
21:00−21ссз00100100 0.0 10359
25 января, вт
вт2500:00−22ю11100100 0.0 10339
03:00−23юз11100100 0.1 10329
06:00−23ююз22100100 0.0 102910
09:00−23ююз22100100 0.1 102819
12:00−13ююз359569 0.0 1024139
15:00−10ююз389499 0.0 1021218
18:00−13ююз3897100 0.0 1019122
21:00−11ююз4995100 0.3 1017236
26 января, ср
ср2600:00−9ююз3796100 1.1 1016239
03:00−8зюз3596100 2.1 1016196
06:00−8зсз279785 0.3 1015158
09:00−9сз499575 0.4 1017228
12:00−6ссз4892100 0.1 1018449
15:00−7ссз369394 0.1 1018363
18:00−15сз359845 0.0 102049
21:00−20ссз2210074 0.0 10209
27 января, чт
чт2700:00−23ссз1110094 0.0 10219
03:00−24зюз11100100 0.0 10209
06:00−20ююз22100100 0.0 101926
09:00−17ю2397100 0.0 101846
12:00−12ю359090 0.0 1016169
15:00−10ю379222 0.0 1015252
18:00−14ююв389770 0.0 1014125
21:00−12ю4109577 0.0 1012195
28 января, пт
пт2800:00−14ю41095100 0.0 1011171
03:00−11ю4119598 0.1 1009261
06:00−10ю51194100 0.1 1006294
09:00−8ююв51294100 0.2 1005357
12:00−6ююв51294100 0.1 1002433
15:00−4ююв51096100 1.2 1001502
18:00−4ююв499699 0.6 1000371
21:00−5юв3796100 1.1 1000227